Weather History for KHCD - May, 2013

Change the Weather History Date:

Saturday, May 25, 2013

  Actual Average Record
Temperature  
Mean Temperature 54 °F -  
Max Temperature 58 °F 72 °F 94 °F (1978)
Min Temperature 52 °F 49 °F 33 °F (1974)
Degree Days  
Heating Degree Days 10    
Growing Degree Days 4 (Base 50)    
Moisture  
Dew Point 50 °F    
Average Humidity 84    
Maximum Humidity 94    
Minimum Humidity 77    
Precipitation  
Precipitation 0.01 in - - ()
Sea Level Pressure  
Sea Level Pressure 30.21 in    
Wind  
Wind Speed 14 mph (ESE)    
Max Wind Speed 21 mph    
Max Gust Speed 26 mph    
Visibility 10 miles    
Events Rain    
Averages and records for this station are not official NWS values.
T = Trace of Precipitation, MM = Missing Value Source: NWS Daily Summary

Daily Weather History Graph

Daily Weather History Graph

Search for Another Location

Airport or City:

Trip Planner

Search our weather history database for the weather conditions in past years. The results will help you decide how hot, cold, wet, or windy it might be!

Date:

Astronomy

May. 25, 2013 Rise Set
Actual Time 5:39 AM CDT 8:50 PM CDT
Civil Twilight 5:03 AM CDT 9:26 PM CDT
Nautical Twilight 4:17 AM CDT 10:12 PM CDT
Astronomical Twilight 3:22 AM CDT 11:08 PM CDT
Moon 9:38 PM CDT (5/25) 6:07 AM CDT (5/25)
Length of Visible Light 16h 22m
Length of Day
15h 11m
Full, 100% of the Moon is Illuminated
May 25
Full
May 31
Last Quarter
Jun 8
New
Jun 16
First Quarter
Jun 23
Full

Hourly Weather History & Observations

Time (CDT) Temp. Dew Point Humidity Pressure Visibility Wind Dir Wind Speed Gust Speed Precip Events Conditions
12:13 AM 54.9 °F 50.9 °F 86% 30.22 in 10.0 mi ESE 11.5 mph - N/A   Drizzle
12:34 AM 54.7 °F 50.9 °F 87% 30.22 in 10.0 mi East 10.4 mph - N/A   Overcast
12:54 AM 54.7 °F 50.9 °F 87% 30.23 in 10.0 mi ESE 9.2 mph - N/A   Overcast
1:14 AM 54.5 °F 50.9 °F 88% 30.23 in 10.0 mi ESE 9.2 mph - N/A   Overcast
1:34 AM 54.1 °F 50.9 °F 89% 30.22 in 10.0 mi ESE 10.4 mph - N/A   Drizzle
1:53 AM 53.6 °F 51.3 °F 92% 30.20 in 10.0 mi East 12.7 mph - 0.01 in Rain Light Rain
2:14 AM 54.0 °F 50.9 °F 89% 30.19 in 10.0 mi ESE 12.7 mph - N/A   Overcast
2:34 AM 54.0 °F 50.5 °F 88% 30.19 in 10.0 mi ESE 13.8 mph - N/A   Overcast
2:54 AM 54.0 °F 50.4 °F 88% 30.19 in 10.0 mi ESE 12.7 mph - N/A   Overcast
3:14 AM 54.1 °F 50.5 °F 88% 30.19 in 10.0 mi ESE 12.7 mph 18.4 mph N/A   Overcast
3:33 AM 53.8 °F 50.4 °F 88% 30.18 in 10.0 mi ESE 11.5 mph - N/A   Overcast
3:54 AM 54.0 °F 50.0 °F 86% 30.19 in 10.0 mi ESE 11.5 mph - N/A   Overcast
4:14 AM 54.1 °F 50.0 °F 86% 30.20 in 10.0 mi ESE 12.7 mph - N/A   Overcast
4:33 AM 54.0 °F 50.0 °F 86% 30.20 in 10.0 mi ESE 11.5 mph - N/A   Overcast
4:54 AM 53.6 °F 50.0 °F 88% 30.19 in 10.0 mi ESE 13.8 mph 19.6 mph N/A Rain Rain
5:13 AM 53.8 °F 49.8 °F 86% 30.18 in 10.0 mi ESE 13.8 mph - N/A   Overcast
5:34 AM 53.8 °F 50.0 °F 87% 30.19 in 10.0 mi East 11.5 mph - N/A   Overcast
5:54 AM 53.8 °F 49.8 °F 86% 30.18 in 10.0 mi East 15.0 mph - N/A   Overcast
6:14 AM 53.6 °F 50.0 °F 88% 30.19 in 10.0 mi East 16.1 mph - N/A   Overcast
6:34 AM 53.8 °F 49.8 °F 86% 30.19 in 10.0 mi ESE 16.1 mph - N/A   Overcast
6:53 AM 53.8 °F 49.6 °F 86% 30.19 in 10.0 mi ESE 17.3 mph - N/A   Overcast
7:14 AM 53.8 °F 49.3 °F 85% 30.19 in 10.0 mi ESE 16.1 mph - N/A   Overcast
7:34 AM 54.0 °F 49.3 °F 84% 30.19 in 10.0 mi East 13.8 mph - N/A   Overcast
7:51 AM 54.5 °F 49.1 °F 82% 30.19 in 10.0 mi East 16.1 mph - N/A   Overcast
8:05 AM 53.6 °F 50.0 °F 88% 30.19 in 10.0 mi ESE 13.8 mph 21.9 mph N/A   Overcast
8:24 AM 54.7 °F 49.1 °F 81% 30.20 in 10.0 mi ESE 16.1 mph 20.7 mph N/A   Overcast
8:34 AM 54.9 °F 49.3 °F 81% 30.21 in 10.0 mi ESE 15.0 mph 21.9 mph N/A   Overcast
8:53 AM 54.9 °F 49.3 °F 81% 30.21 in 10.0 mi ESE 17.3 mph - N/A   Overcast
9:14 AM 55.2 °F 49.1 °F 80% 30.21 in 10.0 mi ESE 16.1 mph - N/A   Overcast
9:33 AM 55.8 °F 49.3 °F 79% 30.21 in 10.0 mi ESE 16.1 mph 21.9 mph N/A   Overcast
9:54 AM 56.5 °F 50.2 °F 79% 30.21 in 10.0 mi ESE 15.0 mph 21.9 mph N/A   Overcast
10:14 AM 56.7 °F 50.0 °F 78% 30.21 in 10.0 mi ESE 16.1 mph 20.7 mph N/A   Overcast
10:34 AM 56.7 °F 50.0 °F 78% 30.21 in 10.0 mi ESE 16.1 mph - N/A   Overcast
10:54 AM 57.2 °F 50.0 °F 77% 30.22 in 10.0 mi ESE 13.8 mph - N/A   Overcast
11:14 AM 57.4 °F 50.5 °F 78% 30.22 in 10.0 mi ESE 13.8 mph - N/A   Overcast
11:34 AM 57.9 °F 50.7 °F 77% 30.22 in 10.0 mi SE 15.0 mph 20.7 mph N/A   Overcast
11:54 AM 57.9 °F 50.9 °F 77% 30.22 in 10.0 mi SE 18.4 mph 21.9 mph N/A   Overcast
12:14 PM 57.6 °F 50.5 °F 77% 30.22 in 10.0 mi ESE 18.4 mph 26.5 mph N/A   Overcast
12:33 PM 57.2 °F 50.5 °F 78% 30.22 in 10.0 mi ESE 20.7 mph 25.3 mph N/A   Overcast
12:53 PM 57.0 °F 50.7 °F 79% 30.22 in 10.0 mi ESE 20.7 mph 26.5 mph N/A   Overcast
1:14 PM 56.7 °F 51.4 °F 83% 30.22 in 10.0 mi ESE 17.3 mph 25.3 mph N/A   Overcast
1:34 PM 55.9 °F 51.8 °F 86% 30.22 in 10.0 mi ESE 17.3 mph 24.2 mph N/A   Overcast
1:54 PM 55.9 °F 52.0 °F 87% 30.22 in 10.0 mi ESE 19.6 mph 24.2 mph N/A   Overcast
2:07 PM 55.9 °F 51.8 °F 86% 30.23 in 10.0 mi ESE 17.3 mph 26.5 mph N/A   Overcast
2:25 PM 55.4 °F 51.8 °F 88% 30.23 in 10.0 mi ESE 18.4 mph 24.2 mph N/A   Overcast
2:45 PM 55.4 °F 51.8 °F 88% 30.23 in 10.0 mi ESE 19.6 mph 24.2 mph N/A   Overcast
3:05 PM 55.4 °F 51.8 °F 88% 30.22 in 10.0 mi ESE 19.6 mph 23.0 mph N/A   Overcast
3:25 PM 55.4 °F 51.8 °F 88% 30.22 in 10.0 mi ESE 20.7 mph 25.3 mph N/A   Overcast
3:45 PM 55.4 °F 51.8 °F 88% 30.22 in 10.0 mi ESE 20.7 mph 26.5 mph N/A   Overcast
4:05 PM 55.4 °F 50.0 °F 82% 30.22 in 7.0 mi ESE 19.6 mph 25.3 mph N/A   Overcast
4:25 PM 53.6 °F 51.8 °F 94% 30.22 in 10.0 mi ESE 16.1 mph - N/A   Overcast
4:45 PM 53.6 °F 51.8 °F 94% 30.22 in 10.0 mi ESE 18.4 mph 21.9 mph N/A   Overcast
5:05 PM 53.6 °F 50.0 °F 88% 30.22 in 10.0 mi ESE 13.8 mph - N/A   Overcast
5:25 PM 53.6 °F 50.0 °F 88% 30.22 in 10.0 mi ESE 18.4 mph 21.9 mph N/A   Overcast
5:45 PM 53.6 °F 50.0 °F 88% 30.22 in 10.0 mi ESE 16.1 mph 21.9 mph N/A   Overcast
6:05 PM 53.6 °F 50.0 °F 88% 30.22 in 10.0 mi ESE 18.4 mph - N/A   Overcast
6:25 PM 53.6 °F 50.0 °F 88% 30.21 in 10.0 mi ESE 16.1 mph - N/A   Overcast
6:45 PM 53.6 °F 50.0 °F 88% 30.21 in 10.0 mi ESE 13.8 mph 23.0 mph N/A   Overcast
7:05 PM 53.6 °F 50.0 °F 88% 30.21 in 10.0 mi ESE 17.3 mph - N/A   Overcast
7:32 PM 54.5 °F 48.4 °F 80% 30.21 in 10.0 mi ESE 12.7 mph 20.7 mph N/A   Overcast
7:34 PM 54.5 °F 48.4 °F 80% 30.21 in 10.0 mi ESE 15.0 mph 19.6 mph N/A   Overcast
7:54 PM 54.5 °F 48.4 °F 80% 30.21 in 10.0 mi ESE 13.8 mph - N/A   Overcast
8:14 PM 54.5 °F 48.4 °F 80% 30.21 in 10.0 mi ESE 15.0 mph - N/A   Overcast
8:34 PM 54.1 °F 48.0 °F 80% 30.21 in 10.0 mi ESE 13.8 mph - N/A   Overcast
8:54 PM 53.8 °F 47.7 °F 80% 30.22 in 10.0 mi ESE 12.7 mph - N/A   Overcast
9:14 PM 53.6 °F 47.5 °F 80% 30.22 in 10.0 mi ESE 13.8 mph - N/A   Overcast
9:34 PM 53.6 °F 47.3 °F 79% 30.22 in 10.0 mi ESE 13.8 mph 18.4 mph N/A   Overcast
9:51 PM 53.4 °F 47.3 °F 80% 30.22 in 10.0 mi ESE 12.7 mph - N/A   Overcast
10:14 PM 53.2 °F 47.3 °F 80% 30.22 in 10.0 mi ESE 12.7 mph - N/A   Overcast
10:33 PM 53.1 °F 47.1 °F 80% 30.23 in 10.0 mi ESE 10.4 mph - N/A   Overcast
10:54 PM 52.9 °F 47.1 °F 81% 30.22 in 10.0 mi ESE 12.7 mph 18.4 mph N/A   Overcast
11:14 PM 52.3 °F 47.3 °F 83% 30.21 in 10.0 mi ESE 11.5 mph - N/A   Mostly Cloudy
11:34 PM 52.2 °F 46.8 °F 82% 30.21 in 10.0 mi ESE 12.7 mph - N/A   Scattered Clouds
11:53 PM 52.5 °F 46.4 °F 80% 30.20 in 10.0 mi ESE 15.0 mph - N/A   Scattered Clouds